[[{"header":{"parameterUnit":"m.s-1","parameterCategory":1,"la1":30.2991,"la2":30.254,"lo1":-89.0895,"lo2":-89.0444,"dy":0.0017,"dx":0.0017,"nx":28,"ny":28,"refTime":"2026-01-09T09:00:00:Z","depth":0,"parameterNumber":2,"parameterNumberName":"U-component_of_WINDS"},"data":[0,0,0,0,0,0,0,0,0,0,0,0,0,0,0,0,0,0,0,0,0,0,0,0,0,0,0,0,0,0,0,0,0,0,0,0,0,0,0,0,0,0,0,0,0,0,0,0,0,0,0,0,0,0,0,0,0,0,0.3832,0.3832,0,0.3837,0.3837,0.3837,0.3823,0.3822,0.3822,0.3821,0.3826,0.3826,0.3827,0,0,0,0,0,0,0,0,0,0,0,0,0,0.3811,0.3811,0.3832,0.3832,0.3833,0.3837,0.3837,0.3837,0.3823,0.3822,0.3822,0.3821,0.3826,0.3826,0.3827,0,0,0,0,0,0,0,0,0,0,0,0,0,0.3818,0.3811,0.3832,0.3826,0.3825,0.3837,0.3837,0.3837,0.3823,0.3822,0.3822,0.3821,0.3825,0.3826,0.3827,0.3845,0,0,0.3829,0.383,0,0,0,0,0,0,0,0,0.3818,0.3819,0.3827,0.3826,0.3826,0.3829,0.3831,0.384,0.3823,0.3824,0.3821,0.3821,0.3827,0.3828,0.383,0.3846,0.3846,0.383,0.383,0.383,0.3831,0,0,0,0,0,0,0,0.3817,0.3819,0.3834,0.3827,0.3826,0.3823,0.3823,0.3833,0.3829,0.3824,0.3823,0.3823,0.3827,0.383,0.383,0.3846,0.383,0.383,0.3831,0.3831,0.3878,0.3878,0,0,0,0,0,0,0.3818,0.3819,0.3834,0.3834,0.382,0.3824,0.3824,0.3828,0.3829,0.3829,0.3824,0.3823,0.3829,0.3829,0.383,0.3853,0.383,0.3831,0.3832,0.3877,0.3878,0.3879,0,0,0,0,0,0,0.3817,0.3819,0.3834,0.3826,0.3828,0.3825,0.383,0.3829,0.3832,0.3829,0.3829,0.3827,0.3828,0.3829,0.3842,0.3853,0.3831,0.3832,0.3876,0.3877,0.3878,0.3897,0,0,0,0,0,0,0.3817,0.3819,0.3826,0.3826,0.3828,0.3846,0.383,0.3829,0.3833,0.3831,0.3832,0.3832,0.3828,0.3841,0.3843,0.3853,0.3833,0.3875,0.3876,0.3878,0.3896,0.3899,0.3902,0,0,0,0,0,0.3816,0.3831,0.3826,0.3828,0.3837,0.3846,0.3847,0.3842,0.3834,0.3841,0.384,0.3832,0.3851,0.3842,0.3844,0.3855,0.3874,0.3876,0.3878,0.3894,0.3898,0.3901,0,0,0,0,0,0,0.3831,0.3831,0.3826,0.3841,0.3844,0.3844,0.3852,0.3846,0.3851,0.385,0.3843,0.3843,0.3858,0.3858,0.3848,0.3874,0.3861,0.3864,0.3873,0.3877,0.388,0.388,0.3834,0,0,0,0,0,0.3836,0.3844,0.3843,0.3857,0.3858,0.3855,0.3859,0.3855,0.3858,0.3859,0.3858,0.3861,0.3868,0.3872,0.3878,0.3895,0.3896,0.3904,0.3907,0.3909,0.3912,0.3922,0.3926,0.3884,0.3884,0.3884,0,0,0.3847,0.3847,0.3853,0.386,0.3861,0.387,0.3856,0.3865,0.3872,0.386,0.3872,0.3872,0.3875,0.389,0.3897,0.3891,0.3923,0.3912,0.3914,0.3914,0.3924,0.3928,0.3931,0.3885,0.3885,0.3885,0,0,0.387,0.3872,0.3884,0.3886,0.3889,0.3887,0.389,0.3891,0.389,0.3903,0.3894,0.3902,0.3913,0.3916,0.3919,0.3945,0.3938,0.3947,0.3963,0.3973,0.3976,0.3979,0.3989,0.3993,0.3949,0.3949,0.3949,0,0.3883,0.3896,0.389,0.3901,0.3904,0.3895,0.3907,0.3909,0.3914,0.3917,0.391,0.3925,0.3926,0.3942,0.3949,0.3951,0.3955,0.3947,0.3976,0.3979,0.3981,0.3991,0.3995,0.395,0.395,0.395,0.395,0,0.3912,0.392,0.393,0.3935,0.394,0.3951,0.3948,0.3953,0.3949,0.3948,0.3962,0.3962,0.3969,0.3973,0.3968,0.3989,0.3985,0.3977,0.3965,0.3987,0.3996,0.3999,0.3952,0.3951,0.3951,0.3951,0,0,0.3944,0.3948,0.3951,0.3954,0.3957,0.3964,0.3975,0.3982,0.3987,0.3991,0.4001,0.4011,0.4004,0.4008,0.4004,0.4012,0.4034,0.4004,0.4004,0.401,0.4058,0.4065,0.4069,0.403,0.403,0.4031,0.4058,0,0.3968,0.3988,0.3984,0.4003,0.4012,0.4003,0.4013,0.4016,0.4016,0.4023,0.4022,0.403,0.402,0.4022,0.403,0.403,0.4044,0.4028,0.4039,0.404,0.4039,0.4073,0.408,0.4105,0.4062,0.4062,0.4063,0,0.3999,0.4005,0.4025,0.4028,0.4031,0.404,0.4047,0.4054,0.4058,0.4057,0.4061,0.4056,0.4067,0.4054,0.4071,0.406,0.4064,0.4065,0.4066,0.4067,0.4053,0.4076,0.4113,0.4117,0.4068,0.4067,0.4067,0,0.4022,0.4034,0.4049,0.4051,0.4055,0.4062,0.4063,0.4066,0.4071,0.4077,0.408,0.4087,0.4091,0.4097,0.4093,0.4084,0.4111,0.4097,0.411,0.4111,0.4117,0.4116,0.4156,0.4118,0.4118,0.4118,0.4118,0,0.4049,0.4062,0.4059,0.4068,0.4082,0.4078,0.4092,0.4093,0.4096,0.4105,0.4098,0.4107,0.4102,0.411,0.4107,0.4122,0.4123,0.4123,0.4123,0.4124,0.4124,0.4127,0.4126,0.4119,0.4119,0.4119,0.4119,0,0.4077,0.4075,0.409,0.4093,0.4094,0.4105,0.4107,0.4115,0.4115,0.4126,0.4129,0.4128,0.4137,0.4135,0.4145,0.4143,0.4161,0.4158,0.416,0.416,0.4173,0.4172,0.4216,0.4222,0.4181,0.4181,0.4182,0,0.4095,0.4105,0.4109,0.4115,0.4117,0.4126,0.4132,0.4128,0.4134,0.414,0.4147,0.4156,0.4163,0.4179,0.4179,0.4187,0.4184,0.4199,0.4185,0.4187,0.4185,0.4185,0.4187,0.4202,0.4203,0.4203,0.4203,0,0.4127,0.4126,0.4134,0.4142,0.4149,0.4155,0.416,0.4166,0.4162,0.4169,0.4179,0.4185,0.4196,0.4205,0.4213,0.4215,0.4209,0.4208,0.4211,0.4213,0.4215,0.4215,0.4169,0.4207,0.4206,0.4206,0.4206,0.4206,0.4151,0.4159,0.4164,0.4174,0.4178,0.4183,0.4192,0.4193,0.4201,0.421,0.4207,0.4219,0.4224,0.4233,0.4236,0.4245,0.424,0.4245,0.4246,0.4248,0.425,0.4213,0.4247,0.4247,0.4246,0.4246,0.4246,0,0.4183,0.4186,0.4195,0.4203,0.4211,0.4205,0.4211,0.4218,0.4229,0.4234,0.4241,0.4253,0.4262,0.4264,0.4273,0.428,0.4277,0.4282,0.4282,0.4283,0.4254,0.425,0.4284,0.4284,0.4284,0.4284,0.4284,0.4284,0.4201,0.4216,0.4216,0.4233,0.4236,0.4248,0.4252,0.4257,0.4261,0.4275,0.4283,0.4284,0.4288,0.4297,0.4306,0.4306,0.431,0.4316,0.4315,0.4288,0.4285,0.4281,0.4278,0.4317,0.4317,0.4343,0.4344,0.4344]},{"header":{"parameterUnit":"m.s-1","parameterCategory":1,"la1":30.2991,"la2":30.254,"lo1":-89.0895,"lo2":-89.0444,"dy":0.0017,"dx":0.0017,"nx":28,"ny":28,"refTime":"2026-01-09T09:00:00:Z","depth":0,"parameterNumber":3,"parameterNumberName":"V-component_of_WINDS"},"data":[0,0,0,0,0,0,0,0,0,0,0,0,0,0,0,0,0,0,0,0,0,0,0,0,0,0,0,0,0,0,0,0,0,0,0,0,0,0,0,0,0,0,0,0,0,0,0,0,0,0,0,0,0,0,0,0,0,0,4.0835,4.0837,0,4.1038,4.104,4.1042,4.1097,4.1096,4.1094,4.1093,4.1308,4.1314,4.1321,0,0,0,0,0,0,0,0,0,0,0,0,0,4.0502,4.0508,4.0835,4.0837,4.084,4.1037,4.104,4.1043,4.1097,4.1095,4.1094,4.1093,4.1305,4.1314,4.1322,0,0,0,0,0,0,0,0,0,0,0,0,0,4.067,4.051,4.0834,4.089,4.0897,4.1037,4.104,4.1044,4.1097,4.1095,4.1094,4.1092,4.1303,4.1313,4.1323,4.1423,0,0,4.1354,4.1359,0,0,0,0,0,0,0,0,4.0661,4.0682,4.088,4.0887,4.0895,4.104,4.1002,4.1171,4.1098,4.1022,4.1093,4.1091,4.1221,4.1237,4.128,4.1433,4.1442,4.1355,4.1361,4.1366,4.1369,0,0,0,0,0,0,0,4.0649,4.0674,4.0915,4.0882,4.0892,4.0908,4.093,4.1034,4.1129,4.1028,4.1032,4.1055,4.1224,4.127,4.1285,4.1445,4.1355,4.1364,4.137,4.1374,4.1695,4.1697,0,0,0,0,0,0,4.0626,4.0664,4.0909,4.0921,4.0771,4.0916,4.094,4.0995,4.1128,4.1146,4.1057,4.1057,4.1253,4.1273,4.1293,4.1422,4.1366,4.1375,4.1381,4.1693,4.1696,4.1698,0,0,0,0,0,0,4.0619,4.0648,4.09,4.0794,4.0827,4.0923,4.0985,4.1,4.1046,4.115,4.1168,4.1085,4.1252,4.1278,4.1391,4.143,4.138,4.1389,4.169,4.1694,4.1697,4.1678,0,0,0,0,0,0,4.0609,4.0645,4.0682,4.0794,4.0833,4.0992,4.0987,4.1006,4.1062,4.1065,4.1181,4.1199,4.1253,4.1375,4.1401,4.1443,4.1397,4.1687,4.1692,4.1696,4.1675,4.168,4.1684,0,0,0,0,0,4.0597,4.0669,4.0683,4.0712,4.088,4.0994,4.1017,4.1076,4.1065,4.1105,4.1172,4.1195,4.1421,4.1386,4.1416,4.1461,4.1685,4.169,4.1696,4.1673,4.1679,4.1684,0,0,0,0,0,0,4.056,4.0684,4.0702,4.0811,4.0892,4.1003,4.1055,4.108,4.1166,4.1165,4.1237,4.1263,4.1371,4.1428,4.1386,4.1567,4.1554,4.1565,4.1527,4.1533,4.1537,4.1523,4.1406,0,0,0,0,0,4.0564,4.0644,4.0749,4.0836,4.0875,4.0958,4.101,4.1048,4.1135,4.117,4.1246,4.1331,4.1422,4.148,4.1569,4.1683,4.1712,4.173,4.1734,4.1737,4.1747,4.1816,4.1826,4.1716,4.1716,4.1716,0,0,4.0575,4.0652,4.0699,4.0831,4.0897,4.0981,4.0986,4.1074,4.1138,4.1184,4.1295,4.1353,4.1454,4.1568,4.1623,4.1619,4.1784,4.1744,4.1746,4.1754,4.1822,4.1832,4.1842,4.1719,4.1719,4.1718,0,0,4.0637,4.0702,4.0783,4.085,4.095,4.1005,4.1024,4.1133,4.1173,4.1284,4.1322,4.14,4.1554,4.1625,4.1681,4.1772,4.1798,4.18,4.1824,4.189,4.1898,4.1906,4.1942,4.1954,4.1809,4.1809,4.1809,0,4.0638,4.0763,4.0822,4.0909,4.0967,4.1011,4.1096,4.1158,4.1284,4.1324,4.1317,4.1513,4.1584,4.1717,4.1739,4.1782,4.181,4.1788,4.1892,4.1901,4.1909,4.1944,4.1957,4.1808,4.1808,4.1808,4.1808,0,4.0761,4.0847,4.0901,4.1019,4.1084,4.1169,4.1244,4.1303,4.1336,4.1392,4.1508,4.1594,4.1703,4.1737,4.1771,4.1876,4.1871,4.1877,4.1865,4.1918,4.1953,4.1966,4.1808,4.1808,4.1808,4.1808,0,0,4.0806,4.0956,4.0975,4.1031,4.1145,4.1215,4.1304,4.1408,4.1459,4.1544,4.1623,4.1752,4.1759,4.1823,4.1866,4.1923,4.1994,4.1923,4.1926,4.1936,4.212,4.2116,4.2131,4.2011,4.2013,4.2015,4.2112,0,4.0884,4.1042,4.1098,4.1229,4.1312,4.1356,4.1434,4.1515,4.157,4.1651,4.1713,4.1805,4.1805,4.1845,4.1903,4.1972,4.2032,4.1966,4.2088,4.2092,4.2064,4.2148,4.2144,4.2231,4.2126,4.2128,4.213,0,4.0997,4.1083,4.1221,4.1328,4.1365,4.1434,4.1536,4.1611,4.1705,4.1742,4.1813,4.1852,4.1951,4.1931,4.2069,4.2023,4.2076,4.2118,4.2123,4.2139,4.2115,4.2169,4.226,4.2274,4.2151,4.2149,4.2147,0,4.102,4.1169,4.1273,4.1319,4.1445,4.1493,4.1548,4.164,4.17,4.179,4.1831,4.1931,4.1987,4.2065,4.2132,4.2111,4.2265,4.225,4.2302,4.23,4.2334,4.2332,4.2438,4.2364,4.2364,4.2363,4.2363,0,4.1103,4.1187,4.1285,4.1348,4.1445,4.1511,4.1606,4.1664,4.1746,4.1824,4.1868,4.1942,4.2023,4.2108,4.2161,4.227,4.2294,4.2329,4.2343,4.2327,4.2323,4.2365,4.2362,4.2367,4.2366,4.2365,4.2365,0,4.1145,4.1213,4.133,4.144,4.147,4.1536,4.1632,4.1698,4.1755,4.1854,4.1881,4.1973,4.2075,4.2149,4.2281,4.2317,4.2434,4.2446,4.2402,4.241,4.2458,4.2454,4.2597,4.2621,4.2527,4.2528,4.2529,0,4.1195,4.1261,4.1378,4.1433,4.1488,4.1575,4.1637,4.1704,4.1767,4.188,4.1933,4.2038,4.2126,4.2288,4.2368,4.2471,4.2488,4.2531,4.2503,4.2486,4.2492,4.2489,4.2497,4.2536,4.2536,4.2537,4.2537,0,4.1278,4.1309,4.1394,4.1493,4.1564,4.1646,4.1728,4.1771,4.1854,4.1923,4.2027,4.2095,4.223,4.2336,4.2446,4.2507,4.2538,4.2545,4.2563,4.2549,4.2522,4.254,4.2416,4.2542,4.2541,4.2541,4.2541,4.2541,4.1328,4.1389,4.1482,4.1577,4.1645,4.1722,4.1789,4.1855,4.1942,4.2056,4.2092,4.2201,4.2297,4.2448,4.251,4.2599,4.2597,4.2622,4.2629,4.2635,4.2636,4.2505,4.2619,4.2619,4.2619,4.2619,4.2619,0,4.1416,4.1477,4.1564,4.1677,4.1753,4.1772,4.1864,4.1927,4.2022,4.2107,4.2193,4.2315,4.2417,4.2505,4.2613,4.2667,4.2684,4.2693,4.2692,4.2706,4.263,4.2605,4.2678,4.2678,4.2678,4.2678,4.2678,4.2678,4.147,4.1576,4.1618,4.176,4.1823,4.1928,4.198,4.2052,4.2121,4.2254,4.2339,4.2395,4.2483,4.2597,4.2693,4.2717,4.2756,4.2763,4.279,4.2718,4.2711,4.2704,4.2682,4.277,4.277,4.2859,4.286,4.2861]}]]